Year,Month,Day,Hour,Minute,Value (Times are PST for temperature in C)
2011,08,01,00,00,12.90
2011,08,01,00,01,12.90
2011,08,01,00,02,12.90
2011,08,01,00,03,12.90
2011,08,01,00,04,12.90
2011,08,01,00,05,12.90
2011,08,01,00,06,12.90
2011,08,01,00,07,12.90
2011,08,01,00,08,12.80
2011,08,01,00,09,12.80
2011,08,01,00,10,12.80
2011,08,01,00,11,12.80
2011,08,01,00,12,12.80
2011,08,01,00,13,12.80
2011,08,01,00,14,12.80
2011,08,01,00,15,12.80
2011,08,01,00,16,12.80
2011,08,01,00,17,12.80
2011,08,01,00,18,12.80
2011,08,01,00,19,12.80
2011,08,01,00,20,12.80
2011,08,01,00,21,12.80
2011,08,01,00,22,12.80
2011,08,01,00,23,12.70
2011,08,01,00,24,12.70
2011,08,01,00,25,12.70
2011,08,01,00,26,12.70
2011,08,01,00,27,12.60
2011,08,01,00,28,12.60
2011,08,01,00,29,12.60
2011,08,01,00,30,12.60
2011,08,01,00,31,12.60
2011,08,01,00,32,12.50
2011,08,01,00,33,12.50
2011,08,01,00,34,12.50
2011,08,01,00,35,12.50
2011,08,01,00,36,12.50
2011,08,01,00,37,12.50
2011,08,01,00,38,12.40
2011,08,01,00,39,12.40
2011,08,01,00,40,12.40
2011,08,01,00,41,12.40
2011,08,01,00,42,12.30
2011,08,01,00,43,12.30
2011,08,01,00,44,12.30
2011,08,01,00,45,12.30
2011,08,01,00,46,12.30
2011,08,01,00,47,12.30
2011,08,01,00,48,12.30
2011,08,01,00,49,12.30
2011,08,01,00,50,12.30
2011,08,01,00,51,12.30
2011,08,01,00,52,12.30
2011,08,01,00,53,12.20
2011,08,01,00,54,12.20
2011,08,01,00,55,12.20
2011,08,01,00,56,12.20
2011,08,01,00,57,12.10
2011,08,01,00,58,12.10
2011,08,01,00,59,12.10
2011,08,01,01,00,12.10
2011,08,01,01,01,12.10
2011,08,01,01,02,12.10
2011,08,01,01,03,12.10
2011,08,01,01,04,12.10
2011,08,01,01,05,12.10
2011,08,01,01,06,12.00
2011,08,01,01,07,12.00
2011,08,01,01,08,12.00
2011,08,01,01,09,12.00
2011,08,01,01,10,12.00
2011,08,01,01,11,12.00
2011,08,01,01,12,12.00
2011,08,01,01,13,12.00
2011,08,01,01,14,12.00
2011,08,01,01,15,11.90
2011,08,01,01,16,11.90
2011,08,01,01,17,11.90
2011,08,01,01,18,11.90
2011,08,01,01,19,11.90
2011,08,01,01,20,11.90
2011,08,01,01,21,11.90
2011,08,01,01,22,11.90
2011,08,01,01,23,11.90
2011,08,01,01,24,11.90
2011,08,01,01,25,11.90
2011,08,01,01,26,11.90
2011,08,01,01,27,11.90
2011,08,01,01,28,11.90
2011,08,01,01,29,11.90
2011,08,01,01,30,11.90
2011,08,01,01,31,11.90
2011,08,01,01,32,11.90
2011,08,01,01,33,11.90
2011,08,01,01,34,11.90
2011,08,01,01,35,11.80
2011,08,01,01,36,11.80
2011,08,01,01,37,11.90
2011,08,01,01,38,11.90
2011,08,01,01,39,11.90
2011,08,01,01,40,11.90
2011,08,01,01,41,12.00
2011,08,01,01,42,12.00
2011,08,01,01,43,12.00
2011,08,01,01,44,12.00
2011,08,01,01,45,12.00
2011,08,01,01,46,12.00
2011,08,01,01,47,12.00
2011,08,01,01,48,11.90
2011,08,01,01,49,11.90
2011,08,01,01,50,11.90
2011,08,01,01,51,11.90
2011,08,01,01,52,11.90
2011,08,01,01,53,11.80
2011,08,01,01,54,11.80
2011,08,01,01,55,11.80
2011,08,01,01,56,11.80
2011,08,01,01,57,11.80
2011,08,01,01,58,11.80
2011,08,01,01,59,11.80
2011,08,01,02,00,11.80
2011,08,01,02,01,11.80
2011,08,01,02,02,11.80
2011,08,01,02,03,11.70
2011,08,01,02,04,11.70
2011,08,01,02,05,11.70
2011,08,01,02,06,11.70
2011,08,01,02,07,11.70
2011,08,01,02,08,11.70
2011,08,01,02,09,11.70
2011,08,01,02,10,11.70
2011,08,01,02,11,11.70
2011,08,01,02,12,11.70
2011,08,01,02,13,11.70
2011,08,01,02,14,11.70
2011,08,01,02,15,11.70
2011,08,01,02,16,11.70
2011,08,01,02,17,11.70
2011,08,01,02,18,11.70
2011,08,01,02,19,11.70
2011,08,01,02,20,11.80
2011,08,01,02,21,11.80
2011,08,01,02,22,11.80
2011,08,01,02,23,11.80
2011,08,01,02,24,11.80
2011,08,01,02,25,11.80
2011,08,01,02,26,11.80
2011,08,01,02,27,11.80
2011,08,01,02,28,11.80
2011,08,01,02,29,11.80
2011,08,01,02,30,11.80
2011,08,01,02,31,11.80
2011,08,01,02,32,11.80
2011,08,01,02,33,11.80
2011,08,01,02,34,11.80
2011,08,01,02,35,11.80
2011,08,01,02,36,11.80
2011,08,01,02,37,11.80
2011,08,01,02,38,11.80
2011,08,01,02,39,11.80
2011,08,01,02,40,11.80
2011,08,01,02,41,11.80
2011,08,01,02,42,11.80
2011,08,01,02,43,11.80
2011,08,01,02,44,11.80
2011,08,01,02,45,11.80
2011,08,01,02,46,11.80
2011,08,01,02,47,11.70
2011,08,01,02,48,11.70
2011,08,01,02,49,11.70
2011,08,01,02,50,11.70
2011,08,01,02,51,11.70
2011,08,01,02,52,11.80
2011,08,01,02,53,11.80
2011,08,01,02,54,11.80
2011,08,01,02,55,11.80
2011,08,01,02,56,11.80
2011,08,01,02,57,11.80
2011,08,01,02,58,11.80
2011,08,01,02,59,11.80
2011,08,01,03,00,11.80
2011,08,01,03,01,11.80
2011,08,01,03,02,11.80
2011,08,01,03,03,11.80
2011,08,01,03,04,11.80
2011,08,01,03,05,11.80
2011,08,01,03,06,11.80
2011,08,01,03,07,11.80
2011,08,01,03,08,11.80
2011,08,01,03,09,11.80
2011,08,01,03,10,11.80
2011,08,01,03,11,11.80
2011,08,01,03,12,11.80
2011,08,01,03,13,11.70
2011,08,01,03,14,11.70
2011,08,01,03,15,11.70
2011,08,01,03,16,11.70
2011,08,01,03,17,11.70
2011,08,01,03,18,11.70
2011,08,01,03,19,11.70
2011,08,01,03,20,11.80
2011,08,01,03,21,11.80
2011,08,01,03,22,11.80
2011,08,01,03,23,11.80
2011,08,01,03,24,11.90
2011,08,01,03,25,11.90
2011,08,01,03,26,11.90
2011,08,01,03,27,11.90
2011,08,01,03,28,11.90
2011,08,01,03,29,12.00
2011,08,01,03,30,12.00
2011,08,01,03,31,12.00
2011,08,01,03,32,12.00
2011,08,01,03,33,12.00
2011,08,01,03,34,11.90
2011,08,01,03,35,11.90
2011,08,01,03,36,11.90
2011,08,01,03,37,11.80
2011,08,01,03,38,11.80
2011,08,01,03,39,11.80
2011,08,01,03,40,11.80
2011,08,01,03,41,11.80
2011,08,01,03,42,11.80
2011,08,01,03,43,11.80
2011,08,01,03,44,11.80
2011,08,01,03,45,11.80
2011,08,01,03,46,11.80
2011,08,01,03,47,11.80
2011,08,01,03,48,11.70
2011,08,01,03,49,11.70
2011,08,01,03,50,11.70
2011,08,01,03,51,11.70
2011,08,01,03,52,11.70
2011,08,01,03,53,11.70
2011,08,01,03,54,11.70
2011,08,01,03,55,11.70
2011,08,01,03,56,11.80
2011,08,01,03,57,11.70
2011,08,01,03,58,11.70
2011,08,01,03,59,11.70
2011,08,01,04,00,11.70
2011,08,01,04,01,11.60
2011,08,01,04,02,11.60
2011,08,01,04,03,11.60
2011,08,01,04,04,11.60
2011,08,01,04,05,11.60
2011,08,01,04,06,11.50
2011,08,01,04,07,11.40
2011,08,01,04,08,11.40
2011,08,01,04,09,11.40
2011,08,01,04,10,11.40
2011,08,01,04,11,11.40
2011,08,01,04,12,11.40
2011,08,01,04,13,11.40
2011,08,01,04,14,11.40
2011,08,01,04,15,11.40
2011,08,01,04,16,11.40
2011,08,01,04,17,11.40
2011,08,01,04,18,11.40
2011,08,01,04,19,11.40
2011,08,01,04,20,11.40
2011,08,01,04,21,11.40
2011,08,01,04,22,11.40
2011,08,01,04,23,11.40
2011,08,01,04,24,11.40
2011,08,01,04,25,11.40
2011,08,01,04,26,11.40
2011,08,01,04,27,11.40
2011,08,01,04,28,11.40
2011,08,01,04,29,11.40
2011,08,01,04,30,11.40
2011,08,01,04,31,11.40
2011,08,01,04,32,11.40
2011,08,01,04,33,11.40
2011,08,01,04,34,11.40
2011,08,01,04,35,11.40
2011,08,01,04,36,11.50
2011,08,01,04,37,11.60
2011,08,01,04,38,11.60
2011,08,01,04,39,11.60
2011,08,01,04,40,11.60
2011,08,01,04,41,11.60
2011,08,01,04,42,11.60
2011,08,01,04,43,11.60
2011,08,01,04,44,11.60
2011,08,01,04,45,11.60
2011,08,01,04,46,11.60
2011,08,01,04,47,11.60
2011,08,01,04,48,11.60
2011,08,01,04,49,11.60
2011,08,01,04,50,11.60
2011,08,01,04,51,11.60
2011,08,01,04,52,11.60
2011,08,01,04,53,11.60
2011,08,01,04,54,11.60
2011,08,01,04,55,11.60
2011,08,01,04,56,11.60
2011,08,01,04,57,11.60
2011,08,01,04,58,11.60
2011,08,01,04,59,11.60
2011,08,01,05,00,11.60
2011,08,01,05,01,11.50
2011,08,01,05,02,11.40
2011,08,01,05,03,11.40
2011,08,01,05,04,11.40
2011,08,01,05,05,11.40
2011,08,01,05,06,11.40
2011,08,01,05,07,11.40
2011,08,01,05,08,11.40
2011,08,01,05,09,11.40
2011,08,01,05,10,11.40
2011,08,01,05,11,11.40
2011,08,01,05,12,11.40
2011,08,01,05,13,11.40
2011,08,01,05,14,11.60
2011,08,01,05,15,11.50
2011,08,01,05,16,11.40
2011,08,01,05,17,11.40
2011,08,01,05,18,11.40
2011,08,01,05,19,11.40
2011,08,01,05,20,11.40
2011,08,01,05,21,11.40
2011,08,01,05,22,11.40
2011,08,01,05,23,11.50
2011,08,01,05,24,11.60
2011,08,01,05,25,11.60
2011,08,01,05,26,11.60
2011,08,01,05,27,11.60
2011,08,01,05,28,11.60
2011,08,01,05,29,11.70
2011,08,01,05,30,11.70
2011,08,01,05,31,11.70
2011,08,01,05,32,11.70
2011,08,01,05,33,11.70
2011,08,01,05,34,11.70
2011,08,01,05,35,11.70
2011,08,01,05,36,11.70
2011,08,01,05,37,11.70
2011,08,01,05,38,11.70
2011,08,01,05,39,11.60
2011,08,01,05,40,11.60
2011,08,01,05,41,11.60
2011,08,01,05,42,11.60
2011,08,01,05,43,11.60
2011,08,01,05,44,11.60
2011,08,01,05,45,11.60
2011,08,01,05,46,11.60
2011,08,01,05,47,11.60
2011,08,01,05,48,11.60
2011,08,01,05,49,11.60
2011,08,01,05,50,11.60
2011,08,01,05,51,11.60
2011,08,01,05,52,11.60
2011,08,01,05,53,11.60
2011,08,01,05,54,11.60
2011,08,01,05,55,11.60
2011,08,01,05,56,11.60
2011,08,01,05,57,11.60
2011,08,01,05,58,11.60
2011,08,01,05,59,11.60
2011,08,01,06,00,11.60
2011,08,01,06,01,11.60
2011,08,01,06,02,11.60
2011,08,01,06,03,11.60
2011,08,01,06,04,11.60
2011,08,01,06,05,11.60
2011,08,01,06,06,11.60
2011,08,01,06,07,11.60
2011,08,01,06,08,11.60
2011,08,01,06,09,11.60
2011,08,01,06,10,11.60
2011,08,01,06,11,11.60
2011,08,01,06,12,11.60
2011,08,01,06,13,11.60
2011,08,01,06,14,11.60
2011,08,01,06,15,11.60
2011,08,01,06,16,11.60
2011,08,01,06,17,11.60
2011,08,01,06,18,11.60
2011,08,01,06,19,11.60
2011,08,01,06,20,11.60
2011,08,01,06,21,11.60
2011,08,01,06,22,11.60
2011,08,01,06,23,11.60
2011,08,01,06,24,11.60
2011,08,01,06,25,11.60
2011,08,01,06,26,11.60
2011,08,01,06,27,11.60
2011,08,01,06,28,11.70
2011,08,01,06,29,11.70
2011,08,01,06,30,11.70
2011,08,01,06,31,11.80
2011,08,01,06,32,11.80
2011,08,01,06,33,11.80
2011,08,01,06,34,11.80
2011,08,01,06,35,11.80
2011,08,01,06,36,11.80
2011,08,01,06,37,11.80
2011,08,01,06,38,11.80
2011,08,01,06,39,11.80
2011,08,01,06,40,11.80
2011,08,01,06,41,11.80
2011,08,01,06,42,11.90
2011,08,01,06,43,11.90
2011,08,01,06,44,11.90
2011,08,01,06,45,11.90
2011,08,01,06,46,11.90
2011,08,01,06,47,11.90
2011,08,01,06,48,12.00
2011,08,01,06,49,12.00
2011,08,01,06,50,12.10
2011,08,01,06,51,12.20
2011,08,01,06,52,12.20
2011,08,01,06,53,12.30
2011,08,01,06,54,12.30
2011,08,01,06,55,12.30
2011,08,01,06,56,12.40
2011,08,01,06,57,12.40
2011,08,01,06,58,12.50
2011,08,01,06,59,12.60
2011,08,01,07,00,12.70
2011,08,01,07,01,12.70
2011,08,01,07,02,12.80
2011,08,01,07,03,12.80
2011,08,01,07,04,12.90
2011,08,01,07,05,12.90
2011,08,01,07,06,13.00
2011,08,01,07,07,13.00
2011,08,01,07,08,13.10
2011,08,01,07,09,13.10
2011,08,01,07,10,13.20
2011,08,01,07,11,13.20
2011,08,01,07,12,13.30
2011,08,01,07,13,13.30
2011,08,01,07,14,13.40
2011,08,01,07,15,13.50
2011,08,01,07,16,13.60
2011,08,01,07,17,13.70
2011,08,01,07,18,13.70
2011,08,01,07,19,13.80
2011,08,01,07,20,13.80
2011,08,01,07,21,13.90
2011,08,01,07,22,14.00
2011,08,01,07,23,14.10
2011,08,01,07,24,14.20
2011,08,01,07,25,14.30
2011,08,01,07,26,14.30
2011,08,01,07,27,14.40
2011,08,01,07,28,14.40
2011,08,01,07,29,14.50
2011,08,01,07,30,14.50
2011,08,01,07,31,14.50
2011,08,01,07,32,14.50
2011,08,01,07,33,14.60
2011,08,01,07,34,14.70
2011,08,01,07,35,14.70
2011,08,01,07,36,14.80
2011,08,01,07,37,14.80
2011,08,01,07,38,14.80
2011,08,01,07,39,14.90
2011,08,01,07,40,15.00
2011,08,01,07,41,15.00
2011,08,01,07,42,15.10
2011,08,01,07,43,15.10
2011,08,01,07,44,15.20
2011,08,01,07,45,15.20
2011,08,01,07,46,15.20
2011,08,01,07,47,15.20
2011,08,01,07,48,15.30
2011,08,01,07,49,15.30
2011,08,01,07,50,15.30
2011,08,01,07,51,15.40
2011,08,01,07,52,15.40
2011,08,01,07,53,15.50
2011,08,01,07,54,15.50
2011,08,01,07,55,15.60
2011,08,01,07,56,15.60
2011,08,01,07,57,15.60
2011,08,01,07,58,15.60
2011,08,01,07,59,15.60
2011,08,01,08,00,15.50
2011,08,01,08,01,15.50
2011,08,01,08,02,15.50
2011,08,01,08,03,15.50
2011,08,01,08,04,15.60
2011,08,01,08,05,15.60
2011,08,01,08,06,15.60
2011,08,01,08,07,15.60
2011,08,01,08,08,15.60
2011,08,01,08,09,15.60
2011,08,01,08,10,15.50
2011,08,01,08,11,15.50
2011,08,01,08,12,15.50
2011,08,01,08,13,15.40
2011,08,01,08,14,15.40
2011,08,01,08,15,15.50
2011,08,01,08,16,15.50
2011,08,01,08,17,15.50
2011,08,01,08,18,15.50
2011,08,01,08,19,15.50
2011,08,01,08,20,15.60
2011,08,01,08,21,15.60
2011,08,01,08,22,15.70
2011,08,01,08,23,15.70
2011,08,01,08,24,15.70
2011,08,01,08,25,15.80
2011,08,01,08,26,15.80
2011,08,01,08,27,15.80
2011,08,01,08,28,15.80
2011,08,01,08,29,15.80
2011,08,01,08,30,15.80
2011,08,01,08,31,15.90
2011,08,01,08,32,15.90
2011,08,01,08,33,16.00
2011,08,01,08,34,16.10
2011,08,01,08,35,16.10
2011,08,01,08,36,16.20
2011,08,01,08,37,16.20
2011,08,01,08,38,16.30
2011,08,01,08,39,16.40
2011,08,01,08,40,16.40
2011,08,01,08,41,16.40
2011,08,01,08,42,16.50
2011,08,01,08,43,16.60
2011,08,01,08,44,16.60
2011,08,01,08,45,16.60
2011,08,01,08,46,16.60
2011,08,01,08,47,16.70
2011,08,01,08,48,16.70
2011,08,01,08,49,16.70
2011,08,01,08,50,16.70
2011,08,01,08,51,16.70
2011,08,01,08,52,16.70
2011,08,01,08,53,16.70
2011,08,01,08,54,16.80
2011,08,01,08,55,16.80
2011,08,01,08,56,16.80
2011,08,01,08,57,16.80
2011,08,01,08,58,16.80
2011,08,01,08,59,16.90
2011,08,01,09,00,16.90
2011,08,01,09,01,16.90
2011,08,01,09,02,17.00
2011,08,01,09,03,17.00
2011,08,01,09,04,17.00
2011,08,01,09,05,17.10
2011,08,01,09,06,17.10
2011,08,01,09,07,17.20
2011,08,01,09,08,17.20
2011,08,01,09,09,17.30
2011,08,01,09,10,17.30
2011,08,01,09,11,17.30
2011,08,01,09,12,17.40
2011,08,01,09,13,17.40
2011,08,01,09,14,17.40
2011,08,01,09,15,17.40
2011,08,01,09,16,17.40
2011,08,01,09,17,17.40
2011,08,01,09,18,17.50
2011,08,01,09,19,17.50
2011,08,01,09,20,17.60
2011,08,01,09,21,17.60
2011,08,01,09,22,17.60
2011,08,01,09,23,17.60
2011,08,01,09,24,17.60
2011,08,01,09,25,17.60
2011,08,01,09,26,17.70
2011,08,01,09,27,17.70
2011,08,01,09,28,17.70
2011,08,01,09,29,17.70
2011,08,01,09,30,17.70
2011,08,01,09,31,17.60
2011,08,01,09,32,17.50
2011,08,01,09,33,17.40
2011,08,01,09,34,17.40
2011,08,01,09,35,17.50
2011,08,01,09,36,17.60
2011,08,01,09,37,17.70
2011,08,01,09,38,17.80
2011,08,01,09,39,17.80
2011,08,01,09,40,17.80
2011,08,01,09,41,17.80
2011,08,01,09,42,17.80
2011,08,01,09,43,17.80
2011,08,01,09,44,17.80
2011,08,01,09,45,17.70
2011,08,01,09,46,17.60
2011,08,01,09,47,17.60
2011,08,01,09,48,17.50
2011,08,01,09,49,17.60
2011,08,01,09,50,17.60
2011,08,01,09,51,17.70
2011,08,01,09,52,17.60
2011,08,01,09,53,17.60
2011,08,01,09,54,17.60
2011,08,01,09,55,17.70
2011,08,01,09,56,17.70
2011,08,01,09,57,17.80
2011,08,01,09,58,17.90
2011,08,01,09,59,17.90
2011,08,01,10,00,18.00
2011,08,01,10,01,18.10
2011,08,01,10,02,18.20
2011,08,01,10,03,18.20
2011,08,01,10,04,18.20
2011,08,01,10,05,18.20
2011,08,01,10,06,18.20
2011,08,01,10,07,18.30
2011,08,01,10,08,18.50
2011,08,01,10,09,18.50
2011,08,01,10,10,18.60
2011,08,01,10,11,18.60
2011,08,01,10,12,18.50
2011,08,01,10,13,18.50
2011,08,01,10,14,18.50
2011,08,01,10,15,18.40
2011,08,01,10,16,18.40
2011,08,01,10,17,18.40
2011,08,01,10,18,18.40
2011,08,01,10,19,18.40
2011,08,01,10,20,18.40
2011,08,01,10,21,18.50
2011,08,01,10,22,18.40
2011,08,01,10,23,18.40
2011,08,01,10,24,18.50
2011,08,01,10,25,18.50
2011,08,01,10,26,18.50
2011,08,01,10,27,18.40
2011,08,01,10,28,18.40
2011,08,01,10,29,18.20
2011,08,01,10,30,18.10
2011,08,01,10,31,18.10
2011,08,01,10,32,18.10
2011,08,01,10,33,18.10
2011,08,01,10,34,18.10
2011,08,01,10,35,18.10
2011,08,01,10,36,18.00
2011,08,01,10,37,18.00
2011,08,01,10,38,18.10
2011,08,01,10,39,18.20
2011,08,01,10,40,18.20
2011,08,01,10,41,18.40
2011,08,01,10,42,18.50
2011,08,01,10,43,18.60
2011,08,01,10,44,18.70
2011,08,01,10,45,18.70
2011,08,01,10,46,18.80
2011,08,01,10,47,18.90
2011,08,01,10,48,18.90
2011,08,01,10,49,18.90
2011,08,01,10,50,19.00
2011,08,01,10,51,19.10
2011,08,01,10,52,19.10
2011,08,01,10,53,19.10
2011,08,01,10,54,19.10
2011,08,01,10,55,19.20
2011,08,01,10,56,19.20
2011,08,01,10,57,19.10
2011,08,01,10,58,19.10
2011,08,01,10,59,19.10
2011,08,01,11,00,19.00
2011,08,01,11,01,19.10
2011,08,01,11,02,19.10
2011,08,01,11,03,19.10
2011,08,01,11,04,19.10
2011,08,01,11,05,19.10
2011,08,01,11,06,19.20
2011,08,01,11,07,19.30
2011,08,01,11,08,19.40
2011,08,01,11,09,19.50
2011,08,01,11,10,19.60
2011,08,01,11,11,19.60
2011,08,01,11,12,19.50
2011,08,01,11,13,19.50
2011,08,01,11,14,19.40
2011,08,01,11,15,19.40
2011,08,01,11,16,19.30
2011,08,01,11,17,19.30
2011,08,01,11,18,19.30
2011,08,01,11,19,19.30
2011,08,01,11,20,19.30
2011,08,01,11,21,19.30
2011,08,01,11,22,19.30
2011,08,01,11,23,19.40
2011,08,01,11,24,19.40
2011,08,01,11,25,19.40
2011,08,01,11,26,19.40
2011,08,01,11,27,19.50
2011,08,01,11,28,19.50
2011,08,01,11,29,19.50
2011,08,01,11,30,19.50
2011,08,01,11,31,19.50
2011,08,01,11,32,19.40
2011,08,01,11,33,19.40
2011,08,01,11,34,19.40
2011,08,01,11,35,19.30
2011,08,01,11,36,19.30
2011,08,01,11,37,19.30
2011,08,01,11,38,19.20
2011,08,01,11,39,19.20
2011,08,01,11,40,19.20
2011,08,01,11,41,19.10
2011,08,01,11,42,19.10
2011,08,01,11,43,19.10
2011,08,01,11,44,19.10
2011,08,01,11,45,19.10
2011,08,01,11,46,19.10
2011,08,01,11,47,19.20
2011,08,01,11,48,19.30
2011,08,01,11,49,19.40
2011,08,01,11,50,19.50
2011,08,01,11,51,19.50
2011,08,01,11,52,19.60
2011,08,01,11,53,19.60
2011,08,01,11,54,19.60
2011,08,01,11,55,19.70
2011,08,01,11,56,19.90
2011,08,01,11,57,19.90
2011,08,01,11,58,20.00
2011,08,01,11,59,20.10
2011,08,01,12,00,20.20
2011,08,01,12,01,20.20
2011,08,01,12,02,20.30
2011,08,01,12,03,20.30
2011,08,01,12,04,20.40
2011,08,01,12,05,20.40
2011,08,01,12,06,20.50
2011,08,01,12,07,20.50
2011,08,01,12,08,20.50
2011,08,01,12,09,20.50
2011,08,01,12,10,20.50
2011,08,01,12,11,20.50
2011,08,01,12,12,20.60
2011,08,01,12,13,20.60
2011,08,01,12,14,20.60
2011,08,01,12,15,20.60
2011,08,01,12,16,20.60
2011,08,01,12,17,20.60
2011,08,01,12,18,20.60
2011,08,01,12,19,20.40
2011,08,01,12,20,20.20
2011,08,01,12,21,20.20
2011,08,01,12,22,20.30
2011,08,01,12,23,20.40
2011,08,01,12,24,20.50
2011,08,01,12,25,20.60
2011,08,01,12,26,20.70
2011,08,01,12,27,20.80
2011,08,01,12,28,20.90
2011,08,01,12,29,21.00
2011,08,01,12,30,21.10
2011,08,01,12,31,21.10
2011,08,01,12,32,21.10
2011,08,01,12,33,21.10
2011,08,01,12,34,21.00
2011,08,01,12,35,21.00
2011,08,01,12,36,21.00
2011,08,01,12,37,21.00
2011,08,01,12,38,20.80
2011,08,01,12,39,20.70
2011,08,01,12,40,20.60
2011,08,01,12,41,20.70
2011,08,01,12,42,20.80
2011,08,01,12,43,20.80
2011,08,01,12,44,20.80
2011,08,01,12,45,20.80
2011,08,01,12,46,20.80
2011,08,01,12,47,20.80
2011,08,01,12,48,20.80
2011,08,01,12,49,21.00
2011,08,01,12,50,21.30
2011,08,01,12,51,21.30
2011,08,01,12,52,21.30
2011,08,01,12,53,21.50
2011,08,01,12,54,21.50
2011,08,01,12,55,21.40
2011,08,01,12,56,21.30
2011,08,01,12,57,21.30
2011,08,01,12,58,21.30
2011,08,01,12,59,21.40
2011,08,01,13,00,21.40
2011,08,01,13,01,21.60
2011,08,01,13,02,21.60
2011,08,01,13,03,21.60
2011,08,01,13,04,21.60
2011,08,01,13,05,21.60
2011,08,01,13,06,21.60
2011,08,01,13,07,21.70
2011,08,01,13,08,21.70
2011,08,01,13,09,21.80
2011,08,01,13,10,21.90
2011,08,01,13,11,21.90
2011,08,01,13,12,22.00
2011,08,01,13,13,21.90
2011,08,01,13,14,21.90
2011,08,01,13,15,22.00
2011,08,01,13,16,22.10
2011,08,01,13,17,22.10
2011,08,01,13,18,22.20
2011,08,01,13,19,22.20
2011,08,01,13,20,22.20
2011,08,01,13,21,22.20
2011,08,01,13,22,22.10
2011,08,01,13,23,22.00
2011,08,01,13,24,21.90
2011,08,01,13,25,21.80
2011,08,01,13,26,21.70
2011,08,01,13,27,21.80
2011,08,01,13,28,21.80
2011,08,01,13,29,21.90
2011,08,01,13,30,22.00
2011,08,01,13,31,22.00
2011,08,01,13,32,22.00
2011,08,01,13,33,21.90
2011,08,01,13,34,21.70
2011,08,01,13,35,21.70
2011,08,01,13,36,21.80
2011,08,01,13,37,21.80
2011,08,01,13,38,21.70
2011,08,01,13,39,21.80
2011,08,01,13,40,21.80
2011,08,01,13,41,21.90
2011,08,01,13,42,22.00
2011,08,01,13,43,22.20
2011,08,01,13,44,22.30
2011,08,01,13,45,22.20
2011,08,01,13,46,22.10
2011,08,01,13,47,21.90
2011,08,01,13,48,21.70
2011,08,01,13,49,21.40
2011,08,01,13,50,21.30
2011,08,01,13,51,21.20
2011,08,01,13,52,21.20
2011,08,01,13,53,21.10
2011,08,01,13,54,21.00
2011,08,01,13,55,20.90
2011,08,01,13,56,21.00
2011,08,01,13,57,21.00
2011,08,01,13,58,21.00
2011,08,01,13,59,21.00
2011,08,01,14,00,21.10
2011,08,01,14,01,21.00
2011,08,01,14,02,20.90
2011,08,01,14,03,20.80
2011,08,01,14,04,20.80
2011,08,01,14,05,20.80
2011,08,01,14,06,21.00
2011,08,01,14,07,21.10
2011,08,01,14,08,20.90
2011,08,01,14,09,20.90
2011,08,01,14,10,21.00
2011,08,01,14,11,21.00
2011,08,01,14,12,21.00
2011,08,01,14,13,20.90
2011,08,01,14,14,20.70
2011,08,01,14,15,20.60
2011,08,01,14,16,20.50
2011,08,01,14,17,20.50
2011,08,01,14,18,20.60
2011,08,01,14,19,20.70
2011,08,01,14,20,20.80
2011,08,01,14,21,21.00
2011,08,01,14,22,21.00
2011,08,01,14,23,21.00
2011,08,01,14,24,21.10
2011,08,01,14,25,21.30
2011,08,01,14,26,21.50
2011,08,01,14,27,21.60
2011,08,01,14,28,21.60
2011,08,01,14,29,21.60
2011,08,01,14,30,21.70
2011,08,01,14,31,21.70
2011,08,01,14,32,21.90
2011,08,01,14,33,22.00
2011,08,01,14,34,22.10
2011,08,01,14,35,22.30
2011,08,01,14,36,22.40
2011,08,01,14,37,22.40
2011,08,01,14,38,22.20
2011,08,01,14,39,22.00
2011,08,01,14,40,21.70
2011,08,01,14,41,21.60
2011,08,01,14,42,21.40
2011,08,01,14,43,21.30
2011,08,01,14,44,21.30
2011,08,01,14,45,21.30
2011,08,01,14,46,21.30
2011,08,01,14,47,21.30
2011,08,01,14,48,21.30
2011,08,01,14,49,21.30
2011,08,01,14,50,21.20
2011,08,01,14,51,21.20
2011,08,01,14,52,21.20
2011,08,01,14,53,21.30
2011,08,01,14,54,21.40
2011,08,01,14,55,21.60
2011,08,01,14,56,21.60
2011,08,01,14,57,21.50
2011,08,01,14,58,21.30
2011,08,01,14,59,21.30
2011,08,01,15,00,21.10
2011,08,01,15,01,21.00
2011,08,01,15,02,21.00
2011,08,01,15,03,20.80
2011,08,01,15,04,20.80
2011,08,01,15,05,20.80
2011,08,01,15,06,20.80
2011,08,01,15,07,20.70
2011,08,01,15,08,20.50
2011,08,01,15,09,20.50
2011,08,01,15,10,20.50
2011,08,01,15,11,20.50
2011,08,01,15,12,20.40
2011,08,01,15,13,20.30
2011,08,01,15,14,20.30
2011,08,01,15,15,20.20
2011,08,01,15,16,20.20
2011,08,01,15,17,20.20
2011,08,01,15,18,20.20
2011,08,01,15,19,20.20
2011,08,01,15,20,20.20
2011,08,01,15,21,20.20
2011,08,01,15,22,20.10
2011,08,01,15,23,20.00
2011,08,01,15,24,19.90
2011,08,01,15,25,19.90
2011,08,01,15,26,19.90
2011,08,01,15,27,19.90
2011,08,01,15,28,19.90
2011,08,01,15,29,19.90
2011,08,01,15,30,19.90
2011,08,01,15,31,19.90
2011,08,01,15,32,19.90
2011,08,01,15,33,19.80
2011,08,01,15,34,19.70
2011,08,01,15,35,19.60
2011,08,01,15,36,19.60
2011,08,01,15,37,19.60
2011,08,01,15,38,19.70
2011,08,01,15,39,19.70
2011,08,01,15,40,19.70
2011,08,01,15,41,19.70
2011,08,01,15,42,19.80
2011,08,01,15,43,19.80
2011,08,01,15,44,19.70
2011,08,01,15,45,19.60
2011,08,01,15,46,19.60
2011,08,01,15,47,19.60
2011,08,01,15,48,19.70
2011,08,01,15,49,19.70
2011,08,01,15,50,19.80
2011,08,01,15,51,19.80
2011,08,01,15,52,19.60
2011,08,01,15,53,19.50
2011,08,01,15,54,19.40
2011,08,01,15,55,19.40
2011,08,01,15,56,19.30
2011,08,01,15,57,19.30
2011,08,01,15,58,19.30
2011,08,01,15,59,19.30
2011,08,01,16,00,19.40
2011,08,01,16,01,19.40
2011,08,01,16,02,19.50
2011,08,01,16,03,19.50
2011,08,01,16,04,19.60
2011,08,01,16,05,19.70
2011,08,01,16,06,19.90
2011,08,01,16,07,19.90
2011,08,01,16,08,19.80
2011,08,01,16,09,19.70
2011,08,01,16,10,19.60
2011,08,01,16,11,19.60
2011,08,01,16,12,19.50
2011,08,01,16,13,19.50
2011,08,01,16,14,19.50
2011,08,01,16,15,19.50
2011,08,01,16,16,19.60
2011,08,01,16,17,19.70
2011,08,01,16,18,19.90
2011,08,01,16,19,20.10
2011,08,01,16,20,20.20
2011,08,01,16,21,20.30
2011,08,01,16,22,20.30
2011,08,01,16,23,20.30
2011,08,01,16,24,20.40
2011,08,01,16,25,20.60
2011,08,01,16,26,20.70
2011,08,01,16,27,20.60
2011,08,01,16,28,20.50
2011,08,01,16,29,20.40
2011,08,01,16,30,20.20
2011,08,01,16,31,20.10
2011,08,01,16,32,20.10
2011,08,01,16,33,20.10
2011,08,01,16,34,20.20
2011,08,01,16,35,20.40
2011,08,01,16,36,20.40
2011,08,01,16,37,20.40
2011,08,01,16,38,20.50
2011,08,01,16,39,20.50
2011,08,01,16,40,20.40
2011,08,01,16,41,20.40
2011,08,01,16,42,20.50
2011,08,01,16,43,20.50
2011,08,01,16,44,20.50
2011,08,01,16,45,20.60
2011,08,01,16,46,20.70
2011,08,01,16,47,20.80
2011,08,01,16,48,20.70
2011,08,01,16,49,20.70
2011,08,01,16,50,20.50
2011,08,01,16,51,20.50
2011,08,01,16,52,20.50
2011,08,01,16,53,20.50
2011,08,01,16,54,20.40
2011,08,01,16,55,20.40
2011,08,01,16,56,20.20
2011,08,01,16,57,20.10
2011,08,01,16,58,20.00
2011,08,01,16,59,19.90
2011,08,01,17,00,19.90
2011,08,01,17,01,19.90
2011,08,01,17,02,19.80
2011,08,01,17,03,19.90
2011,08,01,17,04,19.90
2011,08,01,17,05,19.80
2011,08,01,17,06,19.70
2011,08,01,17,07,19.60
2011,08,01,17,08,19.50
2011,08,01,17,09,19.50
2011,08,01,17,10,19.60
2011,08,01,17,11,19.80
2011,08,01,17,12,19.90
2011,08,01,17,13,20.00
2011,08,01,17,14,20.10
2011,08,01,17,15,20.20
2011,08,01,17,16,20.20
2011,08,01,17,17,20.30
2011,08,01,17,18,20.40
2011,08,01,17,19,20.40